Weather reports worldwide

Advertisment
Antalya Bolge, Turkey (17302): temperature & dewpoint: 11.07.2019 10:00:00 - 17.07.2019 10:00:00 (EEST)Antalya Bolge, Turkey (17302): wind speed: 11.07.2019 10:00:00 - 17.07.2019 10:00:00 (EEST)Antalya Bolge, Turkey (17302): wind direction: 11.07.2019 10:00:00 - 17.07.2019 10:00:00 (EEST)Antalya Bolge, Turkey (17302): reduced air pressure: 11.07.2019 10:00:00 - 17.07.2019 10:00:00 (EEST)Antalya Bolge, Turkey (17302): visibility: 11.07.2019 10:00:00 - 17.07.2019 10:00:00 (EEST)
Date & Time tt [°C] td [°C] ff [km/h] ff [kn] dd ppp [hPa] vv [km]
17.07.2019 10:00:00 26,2 19,7 4 2 SE 1002,4 15
17.07.2019 09:00:00 25,5 19,9 4 2 SE 1002,5 20
17.07.2019 08:00:00 25,0 20,3 2 1 SSW 1002,8 20
17.07.2019 07:00:00 23,8 20,1 2 1 WNW 1002,9 20
17.07.2019 06:00:00 23,4 20,1 2 1 NW 1002,7 20
17.07.2019 05:00:00 24,3 20,0 2 1 N 1002,9 20
17.07.2019 04:00:00 24,5 20,0 4 2 N 1003,2 20
17.07.2019 03:00:00 24,9 20,0 4 2 N 1003,8 20
17.07.2019 02:00:00 25,6 19,8 4 2 E 1004,5 20
17.07.2019 01:00:00 25,8 19,8 4 2 ESE 1005,1 20
17.07.2019 00:00:00 26,3 19,5 4 2 ESE 1005,4 20
16.07.2019 23:00:00 26,3 19,5 4 2 ESE 1005,5 20
16.07.2019 22:00:00 26,4 18,9 4 2 ESE 1005,4 20
16.07.2019 21:00:00 26,3 18,8 5 3 SSE 1004,9 20
16.07.2019 20:00:00 26,6 18,8 9 5 ESE 1004,5 20
16.07.2019 19:00:00 26,9 19,3 11 6 ESE 1004,5 20
16.07.2019 18:00:00 27,4 20,1 9 5 SE 1004,6 20
16.07.2019 17:00:00 27,3 19,5 11 6 SSE 1004,8 20
16.07.2019 16:00:00 27,6 20,5 11 6 SSE 1005,0 20
16.07.2019 15:00:00 27,2 20,4 11 6 SSE 1005,4 20
16.07.2019 14:00:00 27,5 20,2 11 6 SE 1005,5 20
16.07.2019 13:00:00 27,6 20,5 11 6 SE 1005,8 20
16.07.2019 12:00:00 27,4 20,8 11 6 SE 1006,1 20
16.07.2019 11:00:00 27,6 19,8 9 5 SE 1006,1 20
16.07.2019 10:00:00 26,3 20,5 11 6 ESE 1006,1 20
16.07.2019 09:00:00 26,1 20,0 5 3 SE 1006,0 20
16.07.2019 08:00:00 25,3 17,8 2 1 SSE 1005,8 20
16.07.2019 07:00:00 24,2 18,0 0 0 N 1005,4 20
16.07.2019 06:00:00 23,7 15,8 2 1 NNE 1004,9 20
16.07.2019 05:00:00 24,2 16,0 2 1 NNE 1004,5 20
16.07.2019 04:00:00 24,8 15,8 4 2 N 1004,6 20
16.07.2019 03:00:00 24,4 17,2 2 1 N 1004,7 20
16.07.2019 02:00:00 24,6 17,4 0 0 N 1004,8 20
16.07.2019 01:00:00 25,5 17,0 2 1 SSW 1005,3 20
16.07.2019 00:00:00 26,1 16,7 4 2 NNE 1005,4 20
15.07.2019 23:00:00 26,7 17,3 4 2 NNE 1005,5 20
15.07.2019 22:00:00 26,5 18,4 2 1 E 1005,7 20
15.07.2019 21:00:00 27,5 18,3 4 2 ESE 1004,9 20
15.07.2019 20:00:00 27,7 18,2 4 2 ESE 1004,2 20
15.07.2019 19:00:00 27,9 17,5 9 5 SE 1003,8 20
15.07.2019 18:00:00 27,9 17,5 15 8 SSE 1004,0 20
15.07.2019 17:00:00 27,9 19,8 16 9 ESE 1003,7 20
15.07.2019 16:00:00 28,2 18,4 18 10 SSE 1003,9 20
15.07.2019 15:00:00 28,8 17,4 13 7 SE 1004,4 20
15.07.2019 14:00:00 28,1 17,7 13 7 SE 1004,3 20
15.07.2019 13:00:00 28,1 17,4 9 5 SE 1004,4 20
15.07.2019 12:00:00 26,7 18,4 9 5 SE 1004,6 20
15.07.2019 11:00:00 27,2 18,6 9 5 SE 1004,7 20
15.07.2019 10:00:00 27,2 17,4 4 2 SSE 1004,7 20
15.07.2019 09:00:00 26,5 17,1 4 2 ENE 1004,7 20
15.07.2019 08:00:00 24,4 17,7 4 2 N 1004,4 20
15.07.2019 07:00:00 23,5 18,0 2 1 N 1004,1 20
15.07.2019 06:00:00 23,2 17,7 2 1 N 1004,0 20
15.07.2019 05:00:00 23,8 17,6 2 1 SSW 1003,8 20
15.07.2019 04:00:00 24,4 17,7 4 2 N 1003,6 20
15.07.2019 03:00:00 24,8 18,1 5 3 N 1003,7 20
15.07.2019 02:00:00 25,3 18,1 5 3 N 1004,0 20
15.07.2019 01:00:00 25,2 18,5 5 3 NNE 1004,2 20
15.07.2019 00:00:00 25,7 18,5 4 2 N 1004,4 20
14.07.2019 23:00:00 26,1 18,6 2 1 E 1004,4 20
14.07.2019 22:00:00 26,3 18,3 4 2 ENE 1004,4 20
14.07.2019 21:00:00 26,5 17,6 5 3 E 1004,0 20
14.07.2019 20:00:00 26,3 19,0 9 5 E 1003,6 20
14.07.2019 19:00:00 26,6 20,1 5 3 SE 1003,6 20
14.07.2019 18:00:00 26,7 20,4 8 4 ESE 1003,5 20
14.07.2019 17:00:00 27,1 19,8 8 4 SE 1003,5 20
14.07.2019 16:00:00 27,3 19,7 9 5 SE 1003,9 20
14.07.2019 15:00:00 27,5 19,4 11 6 ESE 1004,2 20
14.07.2019 14:00:00 27,8 18,9 9 5 SE 1004,4 20
14.07.2019 13:00:00 27,8 18,6 11 6 ESE 1004,8 20
14.07.2019 12:00:00 27,6 18,9 11 6 ESE 1005,0 20
14.07.2019 11:00:00 27,2 21,1 11 6 ESE 1005,2 20
14.07.2019 10:00:00 27,0 21,4 5 3 SE 1005,4 20
14.07.2019 09:00:00 26,1 20,5 4 2 SE 1005,3 20
14.07.2019 08:00:00 25,4 20,0 2 1 NNE 1005,1 20
14.07.2019 07:00:00 24,7 20,8 2 1 S 1004,7 20
14.07.2019 06:00:00 24,4 20,7 2 1 E 1004,8 20
14.07.2019 05:00:00 23,9 21,0 2 1 ENE 1004,9 20
14.07.2019 04:00:00 25,1 21,0 4 2 ESE 1004,8 20
14.07.2019 03:00:00 24,5 20,2 2 1 NNW 1005,0 20
14.07.2019 02:00:00 24,4 20,7 2 1 N 1005,4 20
14.07.2019 01:00:00 24,7 20,8 2 1 N 1005,6 20
14.07.2019 00:00:00 25,2 21,5 2 1 S 1005,8 20
13.07.2019 23:00:00 25,8 21,7 2 1 ESE 1005,7 20
13.07.2019 22:00:00 25,7 21,8 2 1 S 1005,4 20
13.07.2019 21:00:00 26,4 21,4 4 2 ESE 1005,1 20
13.07.2019 20:00:00 26,8 20,7 5 3 ESE 1005,0 20
13.07.2019 19:00:00 27,2 21,3 5 3 ESE 1005,0 20
13.07.2019 18:00:00 27,5 20,7 9 5 ESE 1004,8 20
13.07.2019 17:00:00 27,9 21,3 11 6 E 1005,1 20
13.07.2019 16:00:00 27,7 20,9 11 6 ESE 1005,0 20
13.07.2019 15:00:00 27,8 19,9 11 6 E 1005,4 20
13.07.2019 14:00:00 27,7 20,4 11 6 ESE 1005,6 20
13.07.2019 13:00:00 28,0 19,9 11 6 ESE 1005,7 20
13.07.2019 12:00:00 28,9 15,0 15 8 ENE 1005,7 20
13.07.2019 11:00:00 32,0 6,2 8 4 ENE 1005,7 20
13.07.2019 10:00:00 30,5 5,6 4 2 E 1005,6 20
13.07.2019 09:00:00 29,2 5,9 8 4 NNE 1005,6 20
13.07.2019 08:00:00 27,5 6,2 4 2 NNE 1005,4 20
13.07.2019 07:00:00 26,6 6,5 5 3 NE 1004,8 20
13.07.2019 06:00:00 26,4 7,3 4 2 NE 1004,5 20
13.07.2019 05:00:00 27,0 6,3 4 2 NNE 1004,3 20
13.07.2019 04:00:00 27,9 6,5 5 3 NNE 1004,6 20
13.07.2019 03:00:00 27,8 6,4 5 3 NNE 1004,4 20
13.07.2019 02:00:00 26,5 9,2 2 1 NNE 1004,6 20
13.07.2019 01:00:00 27,1 14,5 5 3 NNE 1004,4 20
13.07.2019 00:00:00 26,7 17,8 4 2 NNE 1004,9 20
12.07.2019 23:00:00 27,9 18,1 4 2 ESE 1004,6 20
12.07.2019 22:00:00 27,5 17,1 4 2 E 1004,4 20
12.07.2019 21:00:00 28,1 17,4 2 1 ESE 1003,4 20
12.07.2019 20:00:00 28,9 18,1 4 2 E 1003,1 20
12.07.2019 19:00:00 29,1 19,5 9 5 ESE 1002,7 20
12.07.2019 18:00:00 29,6 18,8 9 5 ESE 1002,6 20
12.07.2019 17:00:00 29,7 17,9 13 7 SE 1002,7 20
12.07.2019 16:00:00 29,1 16,6 16 9 ESE 1002,7 20
12.07.2019 15:00:00 28,9 19,3 15 8 SE 1002,8 20
12.07.2019 14:00:00 28,8 20,4 13 7 E 1002,8 20
12.07.2019 13:00:00 31,3 16,0 5 3 E 1002,9 20
12.07.2019 12:00:00 34,6 8,3 2 1 ENE 1003,0 20
12.07.2019 11:00:00 33,7 8,3 8 4 NE 1003,0 20
12.07.2019 10:00:00 31,4 9,5 9 5 NNE 1002,9 20
12.07.2019 09:00:00 29,8 9,7 8 4 NE 1003,1 20
12.07.2019 08:00:00 28,6 9,7 9 5 NNE 1002,8 20
12.07.2019 07:00:00 27,6 10,2 8 4 NE 1002,2 20
12.07.2019 06:00:00 27,9 10,0 9 5 NNE 1001,9 20
12.07.2019 05:00:00 28,1 10,6 9 5 N 1001,3 20
12.07.2019 04:00:00 28,7 10,7 9 5 NE 1001,1 20
12.07.2019 03:00:00 29,3 11,7 8 4 NNE 1001,0 20
12.07.2019 02:00:00 29,1 13,6 5 3 NNE 1001,0 20
12.07.2019 01:00:00 28,8 15,7 4 2 NNE 1001,3 20
12.07.2019 00:00:00 29,3 16,1 4 2 N 1001,4 20
11.07.2019 23:00:00 29,7 16,5 8 4 NNE 1001,1 20
11.07.2019 22:00:00 29,8 17,6 5 3 NNE 1000,7 20
11.07.2019 21:00:00 30,5 17,9 5 3 NNE 999,9 20
11.07.2019 20:00:00 31,4 17,7 8 4 NNE 999,4 20
11.07.2019 19:00:00 32,3 18,5 4 2 ENE 999,1 20
11.07.2019 18:00:00 32,7 20,6 8 4 ENE 999,2 20
11.07.2019 17:00:00 33,1 18,4 9 5 ENE 999,4 20
11.07.2019 16:00:00 32,9 18,3 13 7 E 999,6 20
11.07.2019 15:00:00 32,2 19,1 13 7 E 1000,6 20
11.07.2019 14:00:00 31,0 22,4 15 8 E 1001,4 20
11.07.2019 13:00:00 30,3 22,3 15 8 E 1001,8 20
11.07.2019 12:00:00 31,9 19,9 8 4 E 1001,9 20
11.07.2019 11:00:00 37,2 8,0 4 2 ESE 1001,8 20
11.07.2019 10:00:00 34,9 8,6 8 4 NNE 1002,0 20

tt = temperature
td = dewpoint
ff = wind speed
dd = wind direction
ppp = reduced air pressure
vv = visibility

Next stations